Regional Weather Roundup
Issued by NWS

Home | Current Version | Previous Version | Graphics & Text | Print | Product List | Glossary On
Versions: 1 2 3 4 5 6 7 8 9 10 11 12 13 14 15 16 17 18 19 20 21 22 23 24 25 26 27 28 29 30 31 32 33 34 35 36 37 38 39 40 41 42 43 44 45 46 47 48 49 50
000
ASUS43 KLOT 211410
RWRIL

ILLINOIS REGIONAL WEATHER ROUNDUP
NATIONAL WEATHER SERVICE CHICAGO/ROMEOVILLE IL
800 AM CST SUN DEC 21 2014

NOTE: "FAIR" INDICATES FEW OR NO CLOUDS BELOW 12,000 FEET WITH NO
SIGNIFICANT WEATHER AND/OR OBSTRUCTIONS TO VISIBILITY.

* THESE STATIONS ARE NOT UNDER NWS QUALITY CONTROL. THEY ALSO MAY NOT
  REPORT WEATHER SUCH AS PRECIPITATION OR FOG.

ILZ001-002-007-009-015-016-024-211500-
NORTHWEST ILLINOIS

CITY           SKY/WX    TMP DP  RH WIND       PRES   REMARKS
MOLINE         CLOUDY    36  32  85 S8        30.12F WCI  30
STERLING*      CLOUDY    34  28  80 S6        30.15F WCI  29
SAVANNA*       CLOUDY    35  32  90 S8        30.13S FOG     WCI  28
$$

ILZ003-004-008-010-011-017-018-211500-
NORTH CENTRAL ILLINOIS

CITY           SKY/WX    TMP DP  RH WIND       PRES   REMARKS
ROCKFORD       CLOUDY    33  29  85 S12       30.17F WCI  24
FREEPORT*      CLOUDY    32  31  95 S14       30.15S FOG     WCI  22
ROCHELLE*      CLOUDY    32  30  93 S14       30.16F FOG     WCI  22
DE KALB*       CLOUDY    30  28  93 SE13      30.17F FOG     WCI  20
PERU*          CLOUDY    34  31  89 S10       30.18F FOG     WCI  26
$$

ILZ005-006-012>014-019>023-211500-
NORTHEAST ILLINOIS

CITY           SKY/WX    TMP DP  RH WIND       PRES   REMARKS
CHICAGO-OHARE  CLOUDY    32  27  81 S8        30.20F WCI  25
CHICAGO-MIDWAY CLOUDY    34  27  75 S10       30.22F WCI  26
AURORA         CLOUDY    33  28  81 SE10      30.19F HAZE    WCI  25
LANSING*       CLOUDY    32  27  83 S6        30.24S WCI  26
JOLIET*        CLOUDY    32  28  85 SE6       30.22S WCI  26
WAUKEGAN         N/A     32  27  81 S9        30.18F WCI  24
DUPAGE AIRPORT CLOUDY    32  27  81 S10       30.18F WCI  24
KANKAKEE*      CLOUDY    32  28  86 SE9       30.24S WCI  24
WHEELING       CLOUDY    33  27  78 S10       30.21F WCI  25
MORRIS*        CLOUDY    32  31  94 SE9       30.20F WCI  24
ROMEOVILLE*    CLOUDY    32  28  86 S14       30.21F WCI  22
NORTHERLY ISL    N/A     33  26  76 S3          N/A
$$

LMZ740>746-211500-
SOUTHERN LAKE MICHIGAN

STATION/POSITION SKY/WX   TEMP    WIND        PRES    VSBY  WAVE
                          AIR SEA DIR/SP/G                  HT/PER
                          (F)     (DEG/KT/KT) (MB)    (MI)  (FT/S)
WAUKEGAN HARBOR            34     190/ 14/ 15   N/A
HARRISON CRIB              33     160/ 15/ 19   N/A
BURNHAM HARBOR             33     150/  5/  8   N/A
CALUMET HARBOR             33     170/ 10/ 13 1022.3S
$$

ILZ025>027-034>036-040-047-049-050-058-095>099-211500-
WEST-CENTRAL ILLINOIS

CITY           SKY/WX    TMP DP  RH WIND       PRES   REMARKS
QUINCY         CLOUDY    38  34  85 SE8       30.14F WCI  32
GALESBURG*     CLOUDY    35  33  94 SE7       30.14F FOG     WCI  29
MACOMB*        CLOUDY    37  35  93 S8        30.17F FOG     WCI  30
JACKSONVILLE*  CLOUDY    39  34  81 SE9       30.18F WCI  33
PITTSFIELD*    CLOUDY    38  35  87 SE7       30.17F WCI  33
$$

ILZ028>032-037-038-041>044-048-051>054-059>061-211500-
CENTRAL ILLINOIS

CITY           SKY/WX    TMP DP  RH WIND       PRES   REMARKS
PONTIAC        CLOUDY    34  31  89 S13       30.21F FOG     WCI  25
BLOOMINGTON    CLOUDY    32  30  92 S9        30.21F FOG     WCI  24
DECATUR        CLOUDY    33  29  85 S14       30.23S FOG     WCI  23
PEORIA         CLOUDY    36  30  79 S8        30.18F HAZE    WCI  30
LACON*         CLOUDY    34  30  85 S7        30.18S WCI  28
LINCOLN*       CLOUDY    36  32  87 S7        30.22S WCI  30
SPRINGFIELD    CLOUDY    38  31  76 S13       30.21S WCI  30
TAYLORVILLE    CLOUDY    34  30  86 SE9       30.22F WCI  26
$$

ILZ033-039-045-046-055>057-062-063-211500-
EAST-CENTRAL ILLINOIS

CITY           SKY/WX    TMP DP  RH WIND       PRES   REMARKS
CHAMPAIGN      CLOUDY    31  27  85 SE9       30.24S FOG     WCI  23
DANVILLE*      CLOUDY    29  26  87 S7        30.23F WCI  22
RANTOUL*       CLOUDY    32  29  90 SE10      30.24F FOG     WCI  24
MATTOON        CLOUDY    30  26  85 S10       30.24F FOG     WCI  21
PARIS*         CLOUDY    30  28  93 SE9       30.27F FOG     WCI  22
$$

ILZ079-100>102-211500-
SOUTHWEST ILLINOIS

CITY           SKY/WX    TMP DP  RH WIND       PRES   REMARKS
ALTON          CLOUDY    37  32  81 SE12      30.21F WCI  30
BELLEVILLE     CLOUDY    36  33  88 SE9       30.21F WCI  29
CAHOKIA*       CLOUDY    38  33  82 SE8       30.21F WCI  32
SPARTA*        CLOUDY    33  29  86 SE6       30.24F WCI  28
$$

ILZ064>066-069>071-074>076-080>082-084>086-088>090-092>094-211500-
SOUTH-CENTRAL ILLINOIS

CITY           SKY/WX    TMP DP  RH WIND       PRES   REMARKS
CARBONDALE     MOCLDY    27  24  89 E3        30.25F FOG
CAIRO*         CLEAR     31  31 100 CALM      30.25F FOG
EFFINGHAM*     CLOUDY    32  26  77 E6        30.28F HAZE    WCI  26
MARION         MOCLDY    28  27  93 E7        30.26S WCI  21
MT. VERNON     CLOUDY    30  25  80 E3        30.27S
CENTRALIA*     CLOUDY    33  27  79 SE6       30.25F WCI  27
SALEM*         CLOUDY    35  28  78 SE6       30.25F WCI  30
METROPOLIS*    CLEAR     26  26 100 CALM      30.25F FOG
$$

ILZ067-068-072-073-078-083-087-091-211500-
SOUTHEAST ILLINOIS

CITY           SKY/WX    TMP DP  RH WIND       PRES   REMARKS
LAWRENCEVILLE  CLEAR     26  24  92 E6        30.29F FOG     WCI  19
FLORA*         CLEAR     29  27  91 SE5       30.28S FOG     WCI  24
FAIRFIELD*     PTCLDY    27  25  92 CALM      30.26F FOG
HARRISBURG*    CLEAR     28  27  99 NE3       30.28S FOG
ROBINSON*      CLEAR     26  26  99 SE5       30.30F FOG     WCI  20
CARMI*         CLEAR     26  26 100 CALM      30.28S FOG
$$

ABBREVIATIONS USED IN REMARKS
   TC - TEMPERATURE IN CELSIUS
  WCI - WIND CHILL INDEX
   HX - HEAT INDEX
  VSB - VISIBILITY
$$




USA.gov is the U.S. government's official web portal to all federal, state and local government web resources and services.